Starlink 30451

operational
NORAD ID: 57905 Int'l Des: 2023-146 Owner: SPXS Country: US Constellation: starlink
LEOCIRCULAR

About Starlink 30451

Description loading...

Live Position

Loading 3D Globe...

Upcoming Passes

Altitude History

Altitude vs Time

uPlot chart will show altitude changes over time

Two-Line Element Set

1 57905U 23146Q 25303.26609599 .00030733 00000-0 22883-2 0 9992
2 57905 43.0041 301.4683 0001719 301.6861 58.3813 15.02400673116394
Epoch: Oct 30, 2025 • Age: 22 hours

Current Status

Altitude 568.3 km
Velocity 7.58 km/s
Sub-Earth Point -33.27°S, 58.78°E
Launch Date Sep 20, 2023
Age 2.1 years
Type internet

Technical Details

Classification Payload
Mass 730.00 kg
Dry Mass 700.00 kg
Total Mass 730.00 kg
Length 0.30 m
Diameter 4.10 m
Span 29.00 m
Shape Box + pan
Manufacturer SPXS
Bus Type Starlink V2M
Phase Status In Orbit
Owner/State SPXS/US

Large Constellations

Loading constellations...